FW6562 Weather Reports


time (UTC)temp
C
wind
direction
speed
KPH
gust
KPH
rain 1hr
cm
rain 24hr
cm
rain mn
cm
humidity
%
barometer
mb
20260506203703 15 341 9.7 25.7 0.00 0.33 0.33 74 1010.9
20260506203203 15 327 9.7 16.1 0.00 0.33 0.33 75 1010.9
20260506202706 15 21 3.2 19.3 0.00 0.33 0.33 75 1010.9
20260506202203 15 32 3.2 25.7 0.00 0.33 0.33 75 1010.7
20260506201703 15 29 8.0 12.9 0.00 0.33 0.33 75 1010.6
20260506201203 15 44 8.0 11.3 0.00 0.33 0.33 75 1010.6
20260506200703 15 319 9.7 14.5 0.00 0.33 0.33 75 1010.4
20260506200203 15 354 11.3 20.9 0.00 0.33 0.33 76 1010.3
20260506195705 15 33 9.7 20.9 0.00 0.33 0.33 76 1010.3
20260506195203 15 3 9.7 22.5 0.00 0.33 0.33 77 1010.1
20260506194703 15 339 9.7 20.9 0.00 0.33 0.33 78 1010.0
20260506194203 15 349 9.7 25.7 0.00 0.33 0.33 78 1010.0
20260506193705 16 320 11.3 25.7 0.00 0.33 0.33 79 1009.9
20260506193203 16 349 11.3 19.3 0.00 0.33 0.33 79 1009.8
20260506192703 16 344 11.3 22.5 0.00 0.33 0.33 79 1009.8
20260506192203 16 24 11.3 24.1 0.00 0.33 0.33 78 1009.5
20260506191203 16 350 12.9 24.1 0.00 0.33 0.33 78 1009.3
20260506190703 16 351 12.9 24.1 0.00 0.33 0.33 78 1009.1
20260506190203 16 336 12.9 20.9 0.00 0.33 0.33 77 1009.0
20260506185703 16 343 11.3 22.5 0.00 0.33 0.33 76 1009.0
20260506185204 16 346 11.3 24.1 0.00 0.33 0.33 75 1008.8
20260506184703 16 344 9.7 24.1 0.00 0.33 0.33 74 1008.7
20260506184203 16 352 9.7 16.1 0.00 0.33 0.33 73 1008.7
20260506183704 17 351 9.7 14.5 0.00 0.33 0.33 73 1008.5
20260506182703 17 347 9.7 16.1 0.00 0.33 0.33 73 1008.4
20260506181703 17 14 11.3 16.1 0.00 0.33 0.33 71 1008.0
20260506181203 17 343 11.3 19.3 0.00 0.33 0.33 69 1008.0
20260506180705 17 328 8.0 20.9 0.00 0.33 0.33 67 1007.9
20260506175703 18 25 8.0 20.9 0.00 0.33 0.33 63 1007.8
20260506175203 18 351 8.0 11.3 0.00 0.33 0.33 62 1007.7
20260506174703 18 5 9.7 16.1 0.00 0.33 0.33 61 1007.7
20260506174204 18 62 9.7 16.1 0.00 0.33 0.33 61 1007.7
20260506173704 18 21 11.3 20.9 0.00 0.33 0.33 60 1007.4
20260506173204 18 326 11.3 19.3 0.00 0.33 0.33 60 1007.2
20260506172703 18 326 11.3 14.5 0.00 0.33 0.33 60 1007.2
20260506172203 19 332 11.3 24.1 0.00 0.33 0.33 59 1007.1
20260506171703 19 5 8.0 20.9 0.00 0.33 0.33 57 1007.0
20260506171204 20 339 8.0 19.3 0.00 0.33 0.33 54 1007.0
20260506170704 20 335 9.7 14.5 0.00 0.33 0.33 53 1006.9
20260506170204 19 353 9.7 12.9 0.00 0.33 0.33 53 1006.9
20260506165703 19 317 9.7 24.1 0.00 0.33 0.33 54 1006.9
20260506164205 19 24 11.3 19.3 0.00 0.33 0.33 53 1007.0
20260506163703 19 356 9.7 22.5 0.00 0.33 0.33 52 1006.9
20260506163203 19 333 9.7 22.5 0.00 0.33 0.33 54 1006.9
20260506162703 20 337 9.7 16.1 0.00 0.33 0.33 55 1006.9
20260506162204 20 6 11.3 16.1 0.00 0.33 0.33 55 1006.8
20260506161705 20 341 14.5 19.3 0.00 0.33 0.33 55 1006.8
20260506160204 20 325 9.7 25.7 0.00 0.33 0.33 57 1006.7
20260506155203 20 317 12.9 20.9 0.00 0.33 0.33 58 1006.7
20260506154203 20 344 11.3 20.9 0.00 0.33 0.33 57 1006.7
20260506153704 20 332 9.7 24.1 0.00 0.33 0.33 58 1006.8
20260506153203 20 20 9.7 20.9 0.00 0.33 0.33 57 1006.8
20260506152703 20 355 8.0 14.5 0.00 0.33 0.33 57 1006.8
20260506152203 20 19 8.0 25.7 0.00 0.33 0.33 56 1006.8
20260506151704 21 328 9.7 24.1 0.00 0.33 0.33 56 1006.8
20260506151203 21 1 9.7 19.3 0.00 0.33 0.33 56 1006.8
20260506150706 20 343 9.7 24.1 0.00 0.33 0.33 56 1006.9
20260506150204 20 325 9.7 24.1 0.00 0.33 0.33 56 1006.9
20260506145703 20 312 0.0 1.6 0.00 0.33 0.33 53 1006.9
20260506145203 20 312 0.0 1.6 0.00 0.33 0.33 53 1006.8
20260506144703 20 312 0.0 3.2 0.00 0.33 0.33 53 1006.8
20260506144203 20 327 0.0 3.2 0.00 0.33 0.33 51 1006.8
20260506143703 20 341 0.0 3.2 0.00 0.33 0.33 51 1006.9
20260506143203 20 313 0.0 3.2 0.00 0.33 0.33 53 1007.0
20260506142704 20 10 3.2 0.0 0.00 0.33 0.33 52 1007.0
20260506141703 20 73 3.2 0.0 0.00 0.33 0.33 52 1007.1
20260506141203 20 73 3.2 8.0 0.00 0.33 0.33 52 1007.1
20260506140704 20 355 0.0 12.9 0.00 0.33 0.33 53 1007.2
20260506140203 20 6 0.0 9.7 0.00 0.33 0.33 54 1007.2
20260506135703 20 49 0.0 3.2 0.00 0.33 0.33 55 1007.2
20260506135203 20 135 0.0 0.0 0.00 0.33 0.33 55 1007.3
20260506134703 20 30 0.0 0.0 0.00 0.33 0.33 54 1007.4
20260506134203 20 30 0.0 0.0 0.00 0.33 0.33 54 1007.4
20260506133703 20 32 0.0 8.0 0.00 0.33 0.33 54 1007.4
20260506133203 20 337 0.0 9.7 0.00 0.33 0.33 54 1007.4
20260506132703 20 3 3.2 3.2 0.00 0.33 0.33 54 1007.4
20260506132203 20 27 3.2 9.7 0.00 0.33 0.33 55 1007.5
20260506131703 20 55 3.2 9.7 0.00 0.33 0.33 57 1007.5
20260506131203 20 55 3.2 9.7 0.00 0.33 0.33 57 1007.5
20260506130703 20 51 3.2 11.3 0.05 0.33 0.33 57 1007.5
20260506130203 20 30 3.2 3.2 0.05 0.33 0.33 57 1007.5
20260506125203 19 188 0.0 9.7 0.05 0.33 0.33 57 1007.5
20260506124703 19 162 3.2 4.8 0.05 0.33 0.33 59 1007.5
20260506124205 19 322 3.2 3.2 0.05 0.33 0.33 59 1007.5
20260506123703 19 335 3.2 11.3 0.05 0.33 0.33 59 1007.6
20260506123203 19 29 3.2 11.3 0.05 0.33 0.33 59 1007.6
20260506122703 19 177 3.2 12.9 0.05 0.33 0.33 58 1007.6
20260506122206 19 320 3.2 9.7 0.05 0.33 0.33 58 1007.6
20260506121704 19 176 3.2 11.3 0.05 0.33 0.33 58 1007.6
20260506120203 18 196 3.2 11.3 0.00 0.28 0.28 59 1007.6
20260506115703 18 183 4.8 9.7 0.00 0.28 0.28 58 1007.6
20260506115203 18 219 4.8 11.3 0.00 0.28 0.28 62 1007.7
20260506114203 18 180 3.2 12.9 0.00 0.28 0.28 61 1007.7
20260506113704 18 19 0.0 3.2 0.00 0.28 0.28 62 1007.8
20260506112703 18 174 3.2 8.0 0.00 0.28 0.28 62 1007.8
20260506112204 18 351 3.2 1.6 0.00 0.28 0.28 64 1007.9
20260506111703 17 9 3.2 8.0 0.00 0.28 0.28 65 1008.0
20260506110704 17 197 3.2 8.0 0.00 0.28 0.28 66 1008.1
20260506110203 17 156 3.2 12.9 0.00 0.28 0.28 65 1008.1
20260506105703 17 127 3.2 8.0 0.00 0.28 0.28 66 1008.1
20260506105203 17 150 3.2 8.0 0.00 0.28 0.28 68 1008.2
20260506104703 17 169 3.2 8.0 0.00 0.28 0.28 67 1008.2
20260506104204 17 341 3.2 9.7 0.00 0.28 0.28 68 1008.2
20260506103703 16 194 0.0 9.7 0.00 0.28 0.28 70 1008.2
20260506103204 16 10 0.0 9.7 0.00 0.28 0.28 73 1008.2
20260506102704 16 326 1.6 8.0 0.00 0.28 0.28 74 1008.2
20260506102203 16 25 1.6 8.0 0.00 0.28 0.28 75 1008.3
20260506101704 16 93 0.0 4.8 0.00 0.28 0.28 75 1008.3
20260506101203 15 113 0.0 8.0 0.00 0.28 0.28 76 1008.3
20260506100703 15 15 3.2 8.0 0.00 0.28 0.28 77 1008.4
20260506100203 15 0 3.2 3.2 0.00 0.28 0.28 76 1008.5
20260506095705 15 315 4.8 9.7 0.00 0.28 0.28 77 1008.5
20260506095203 15 11 4.8 8.0 0.00 0.28 0.28 78 1008.6
20260506094703 15 32 4.8 9.7 0.00 0.28 0.28 79 1008.6
20260506094203 15 346 4.8 16.1 0.00 0.28 0.28 79 1008.6
20260506093703 15 36 4.8 11.3 0.00 0.28 0.28 80 1008.7
20260506093203 14 33 4.8 12.9 0.00 0.28 0.28 81 1008.8
20260506092704 14 4 8.0 16.1 0.00 0.28 0.28 81 1008.8
20260506092205 14 14 8.0 9.7 0.00 0.28 0.28 82 1008.8
20260506091703 14 343 8.0 14.5 0.00 0.28 0.28 83 1008.8
20260506091204 13 23 8.0 11.3 0.00 0.28 0.28 83 1008.8
20260506090703 13 353 4.8 12.9 0.00 0.28 0.28 85 1008.9
20260506090203 13 317 4.8 16.1 0.00 0.30 0.28 85 1008.9
20260506085203 13 21 3.2 1.6 0.00 0.30 0.28 92 1008.9
20260506084206 13 21 3.2 11.3 0.00 0.30 0.28 92 1008.9
20260506083703 13 348 0.0 3.2 0.00 0.30 0.28 92 1008.9
20260506082703 13 35 0.0 3.2 0.00 0.30 0.28 92 1008.9
20260506082204 13 308 0.0 3.2 0.00 0.30 0.28 92 1008.8
20260506081703 13 338 0.0 3.2 0.00 0.33 0.28 94 1008.8
20260506081204 13 174 0.0 0.0 0.00 0.33 0.28 94 1008.8
20260506080703 13 174 0.0 0.0 0.00 0.33 0.28 94 1008.9
20260506080203 13 174 0.0 0.0 0.00 0.33 0.28 94 1008.9
20260506072203 13 174 0.0 1.6 0.00 0.38 0.28 95 1008.8
20260506071204 13 174 0.0 0.0 0.00 0.38 0.28 95 1008.8
20260506070703 13 174 0.0 0.0 0.00 0.41 0.28 95 1008.9
20260506070203 13 174 0.0 0.0 0.00 0.41 0.28 95 1008.9
20260506062203 13 174 0.0 0.0 0.05 0.46 0.28 95 1009.1
20260506061703 13 174 0.0 1.6 0.05 0.46 0.28 95 1009.1
20260506061203 13 174 0.0 0.0 0.08 0.46 0.28 95 1009.1
20260506060703 13 174 0.0 0.0 0.08 0.46 0.28 95 1009.2
20260506060204 13 174 0.0 0.0 0.08 0.46 0.28 95 1009.2
20260506051204 12 27 0.0 0.0 0.08 0.38 0.20 94 1009.4
20260506050706 12 335 0.0 1.6 0.08 0.38 0.20 94 1009.5
20260506050203 12 300 0.0 3.2 0.08 0.38 0.20 94 1009.5
20260506043703 12 328 0.0 0.0 0.08 0.38 0.18 94 1009.7
20260506043204 12 211 0.0 0.0 0.08 0.38 0.18 94 1009.7
20260506042703 12 210 0.0 1.6 0.10 0.36 0.15 94 1009.7
20260506042203 12 299 0.0 1.6 0.10 0.36 0.15 94 1009.6
20260506041703 12 298 0.0 3.2 0.13 0.36 0.15 94 1009.5
20260506041203 13 318 0.0 3.2 0.10 0.33 0.13 94 1009.5
20260506040703 13 319 0.0 3.2 0.10 0.33 0.13 94 1009.7
20260506040203 13 309 0.0 0.0 0.10 0.33 0.13 94 1009.9
20260506035704 13 309 0.0 0.0 0.10 0.33 0.13 94 1009.9
20260506035203 13 309 0.0 0.0 0.10 0.36 0.13 93 1009.8
20260506034704 13 309 0.0 0.0 0.10 0.36 0.13 93 1009.8
20260506034205 13 309 0.0 0.0 0.08 0.33 0.10 93 1009.8
20260506033703 13 309 0.0 3.2 0.08 0.33 0.10 93 1009.9
20260506033204 13 319 0.0 0.0 0.08 0.33 0.10 93 1010.0
20260506032703 13 320 0.0 0.0 0.03 0.28 0.05 93 1010.0
20260506031204 13 28 0.0 3.2 0.00 0.25 0.03 92 1010.2
20260506030704 13 17 0.0 0.0 0.00 0.25 0.03 92 1010.4
20260506030203 13 328 0.0 0.0 0.00 0.25 0.03 92 1010.6
20260506025704 13 328 0.0 0.0 0.00 0.25 0.03 92 1010.6
20260506025204 13 328 0.0 0.0 0.00 0.25 0.03 92 1010.6
20260506024704 13 121 0.0 3.2 0.00 0.25 0.03 92 1010.6
20260506024203 13 14 0.0 3.2 0.00 0.25 0.03 92 1010.6
20260506023703 13 45 0.0 3.2 0.00 0.25 0.03 92 1010.6
20260506023204 13 8 0.0 3.2 0.00 0.25 0.03 92 1010.7
20260506022706 13 34 0.0 3.2 0.00 0.25 0.03 92 1010.7
20260506022203 13 50 0.0 3.2 0.00 0.25 0.03 92 1010.7
20260506021703 13 39 1.6 1.6 0.00 0.25 0.03 92 1010.8
20260506021203 13 9 1.6 8.0 0.00 0.25 0.03 92 1010.8
20260506020704 13 39 0.0 9.7 0.00 0.25 0.03 92 1010.9
20260506015703 13 2 0.0 3.2 0.00 0.25 0.03 92 1010.9
20260506014204 13 29 0.0 3.2 0.00 0.25 0.03 91 1010.8
20260506013203 13 11 0.0 3.2 0.03 0.25 0.03 91 1011.0
20260506012705 13 10 0.0 1.6 0.03 0.25 0.03 91 1011.0
20260506012203 13 319 0.0 1.6 0.03 0.25 0.03 91 1011.1
20260506011703 13 318 0.0 1.6 0.03 0.25 0.03 91 1011.1
20260506011203 13 318 0.0 0.0 0.03 0.25 0.03 90 1011.1
20260506010703 13 323 0.0 1.6 0.03 0.25 0.03 90 1011.3
20260506010205 13 294 0.0 3.2 0.03 0.25 0.03 90 1011.5
20260506005703 13 349 0.0 0.0 0.03 0.25 0.03 90 1011.5
20260506005203 13 349 0.0 0.0 0.03 0.25 0.03 90 1011.6
20260506004704 13 349 0.0 0.0 0.03 0.25 0.03 90 1011.7
20260506004203 13 349 0.0 0.0 0.03 0.25 0.03 90 1011.7
20260506003703 13 349 0.0 0.0 0.00 0.23 0.00 89 1011.9
20260506003205 13 349 0.0 0.0 0.00 0.23 0.00 89 1012.1
20260506002203 13 168 0.0 4.8 0.00 0.23 0.00 89 1012.3
20260506001203 13 316 0.0 3.2 0.00 0.23 0.00 89 1012.4
20260506000703 13 316 0.0 1.6 0.00 0.23 0.00 89 1012.4
20260506000205 13 318 0.0 0.0 0.00 0.23 0.00 89 1012.4
20260505235703 13 317 0.0 0.0 0.00 0.23 0.00 89 1012.4
20260505235204 13 318 0.0 0.0 0.00 0.23 0.00 89 1012.5
20260505234703 13 315 0.0 0.0 0.00 0.23 0.00 89 1012.5
20260505233203 13 201 0.0 1.6 0.00 0.23 0.00 89 1012.6
20260505232703 13 224 0.0 1.6 0.00 0.23 0.00 88 1012.6
20260505232203 13 192 0.0 1.6 0.00 0.23 0.00 88 1012.7
20260505231705 13 192 0.0 3.2 0.00 0.23 0.00 88 1012.7
20260505231203 13 2 0.0 4.8 0.00 0.23 0.00 88 1012.7
20260505230704 13 11 0.0 1.6 0.00 0.23 0.00 88 1012.6
20260505230204 13 16 0.0 0.0 0.00 0.23 0.00 88 1012.6
20260505225704 13 329 0.0 3.2 0.00 0.23 0.00 88 1012.6
20260505225204 13 321 0.0 1.6 0.00 0.23 0.00 88 1012.9
20260505224704 13 356 0.0 0.0 0.00 0.23 0.00 88 1013.1
20260505224204 13 356 0.0 3.2 0.00 0.23 0.00 88 1013.1
20260505223704 13 21 3.2 0.0 0.00 0.23 0.00 88 1013.0
20260505223203 13 36 3.2 1.6 0.00 0.23 0.00 88 1012.9
20260505222705 13 173 0.0 8.0 0.00 0.23 0.00 88 1012.9
20260505222204 13 190 0.0 11.3 0.00 0.23 0.00 87 1012.9
20260505221703 13 260 0.0 3.2 0.00 0.23 0.00 87 1012.8
20260505221203 14 7 0.0 1.6 0.00 0.23 0.00 87 1012.8
20260505220703 14 27 0.0 3.2 0.00 0.23 0.00 87 1012.9
20260505220204 14 23 0.0 1.6 0.00 0.23 0.00 87 1012.9
20260505215704 14 9 0.0 0.0 0.00 0.23 0.23 87 1012.9
20260505215203 14 9 0.0 1.6 0.00 0.23 0.23 87 1013.1
20260505214704 14 18 0.0 1.6 0.00 0.23 0.23 87 1013.3
20260505214205 14 196 0.0 1.6 0.00 0.23 0.23 87 1013.3
20260505213206 14 198 0.0 3.2 0.00 0.23 0.23 87 1013.4
20260505212704 14 198 0.0 1.6 0.00 0.23 0.23 87 1013.4
20260505212204 14 200 0.0 3.2 0.00 0.23 0.23 87 1013.4
20260505211705 14 201 0.0 3.2 0.00 0.23 0.23 87 1013.4
20260505211203 14 186 0.0 1.6 0.00 0.23 0.23 87 1013.4
20260505210705 14 182 0.0 0.0 0.00 0.23 0.23 87 1013.4
20260505204204 14 182 0.0 1.6 0.00 0.23 0.23 87 1013.5